When you browse on this site, cookies collect data to enhance your experience and personalize the content and advertising you see.
Visit our Privacy Policy to learn more. By continuing to use the site, you agree to this use of cookies and data.
  • In Hungary
  • List of Countries
  • For 7 days
  • Water Temperature
  • Weather Map
  • News
  • Weather Widgets
  • user-avatar
    Login

    Hourly Weather Marrakech

    Today, 10 December, Tuesday

    Time Temperature Precipitation Wind Pressure Humidity
    00:00 +14°C° 0 mm 1 mps 728 mmHg 63%
    01:00 +14°C° 0 mm 1 mps 728 mmHg 64%
    02:00 +12°C° 0 mm 0 mps 728 mmHg 66%
    03:00 +12°C° 0 mm 0 mps 728 mmHg 67%
    04:00 +12°C° 0 mm 0 mps 728 mmHg 69%
    05:00 +11°C° 0 mm 0 mps 728 mmHg 71%
    06:00 +13°C° 0 mm 0 mps 728 mmHg 64%
    07:00 +14°C° 0 mm 0 mps 728 mmHg 58%
    08:00 +15°C° 0 mm 0 mps 729 mmHg 52%
    09:00 +19°C° 0 mm 1 mps 729 mmHg 46%
    10:00 +20°C° 0 mm 1 mps 729 mmHg 41%
    11:00 +21°C° 0 mm 1 mps 729 mmHg 36%
    12:00 +21°C° 0 mm 2 mps 728 mmHg 35%
    13:00 +23°C° 0 mm 2 mps 728 mmHg 34%
    14:00 +23°C° 0 mm 2 mps 727 mmHg 33%
    15:00 +21°C° 0 mm 2 mps 727 mmHg 38%
    16:00 +20°C° 0 mm 3 mps 727 mmHg 44%
    17:00 +19°C° 0 mm 3 mps 727 mmHg 49%
    18:00 +18°C° 0 mm 2 mps 728 mmHg 53%
    19:00 +17°C° 0 mm 2 mps 728 mmHg 56%
    20:00 +17°C° 0 mm 2 mps 728 mmHg 60%
    21:00 +16°C° 0 mm 2 mps 728 mmHg 62%
    22:00 +15°C° 0 mm 1 mps 728 mmHg 65%
    23:00 +15°C° 0 mm 1 mps 728 mmHg 67%

    Tomorrow, 11 December, Wednesday

    Time Temperature Precipitation Wind Pressure Humidity
    00:00 +14°C° 0 mm 1 mps 728 mmHg 68%
    01:00 +13°C° 0 mm 0 mps 728 mmHg 70%
    02:00 +12°C° 0 mm 0 mps 728 mmHg 71%
    03:00 +12°C° 0 mm 0 mps 728 mmHg 71%
    04:00 +12°C° 0 mm 0 mps 727 mmHg 71%
    05:00 +11°C° 0 mm 0 mps 727 mmHg 71%
    06:00 +13°C° 0 mm 0 mps 728 mmHg 66%
    07:00 +14°C° 0 mm 0 mps 729 mmHg 61%
    08:00 +16°C° 0 mm 0 mps 729 mmHg 56%
    09:00 +19°C° 0 mm 1 mps 729 mmHg 52%
    10:00 +20°C° 0 mm 1 mps 729 mmHg 48%
    11:00 +20°C° 0 mm 2 mps 729 mmHg 43%
    12:00 +20°C° 0 mm 2 mps 728 mmHg 40%
    13:00 +21°C° 0 mm 2 mps 728 mmHg 37%
    14:00 +21°C° 0 mm 2 mps 727 mmHg 34%
    15:00 +20°C° 0 mm 2 mps 727 mmHg 37%
    16:00 +19°C° 0 mm 3 mps 727 mmHg 40%
    17:00 +18°C° 0 mm 3 mps 727 mmHg 42%
    18:00 +17°C° 0 mm 3 mps 728 mmHg 46%
    19:00 +16°C° 0 mm 3 mps 728 mmHg 49%
    20:00 +15°C° 0 mm 2 mps 728 mmHg 53%
    21:00 +15°C° 0 mm 2 mps 728 mmHg 56%
    22:00 +14°C° 0 mm 2 mps 728 mmHg 60%
    23:00 +14°C° 0 mm 2 mps 728 mmHg 63%

    Day after tomorrow, 12 December, Thursday

    Time Temperature Precipitation Wind Pressure Humidity
    00:00 +13°C° 0 mm 2 mps 728 mmHg 64%
    01:00 +13°C° 0 mm 2 mps 727 mmHg 65%
    02:00 +12°C° 0 mm 1 mps 727 mmHg 67%
    03:00 +12°C° 0 mm 1 mps 727 mmHg 67%
    04:00 +12°C° 0 mm 2 mps 727 mmHg 68%
    05:00 +10°C° 0 mm 2 mps 727 mmHg 69%
    06:00 +12°C° 0 mm 2 mps 727 mmHg 64%
    07:00 +13°C° 0 mm 2 mps 728 mmHg 60%
    08:00 +14°C° 0 mm 2 mps 728 mmHg 56%
    09:00 +15°C° 0 mm 2 mps 728 mmHg 52%
    10:00 +16°C° 0 mm 3 mps 728 mmHg 48%
    11:00 +18°C° 0 mm 3 mps 728 mmHg 44%
    12:00 +18°C° 0 mm 4 mps 728 mmHg 42%
    13:00 +19°C° 0 mm 4 mps 727 mmHg 41%
    14:00 +19°C° 0 mm 4 mps 727 mmHg 40%
    15:00 +18°C° 0 mm 4 mps 727 mmHg 45%
    16:00 +17°C° 0 mm 4 mps 727 mmHg 50%
    17:00 +15°C° 0 mm 4 mps 727 mmHg 55%
    18:00 +14°C° 0 mm 4 mps 728 mmHg 60%
    19:00 +13°C° 0 mm 4 mps 728 mmHg 64%
    20:00 +12°C° 0 mm 4 mps 728 mmHg 68%
    21:00 +12°C° 0 mm 4 mps 728 mmHg 70%
    22:00 +11°C° 0 mm 4 mps 728 mmHg 72%
    23:00 +11°C° 0 mm 3 mps 728 mmHg 74%

    13 December, Friday

    Time Temperature Precipitation Wind Pressure Humidity
    00:00 +10°C° 0 mm 3 mps 728 mmHg 74%
    01:00 +10°C° 0 mm 3 mps 727 mmHg 75%
    02:00 +10°C° 0 mm 3 mps 727 mmHg 75%
    03:00 +10°C° 0 mm 3 mps 727 mmHg 74%
    04:00 +9°C° 0 mm 3 mps 726 mmHg 72%
    05:00 +9°C° 0 mm 2 mps 726 mmHg 71%
    06:00 +10°C° 0 mm 2 mps 727 mmHg 67%
    07:00 +12°C° 0 mm 2 mps 727 mmHg 63%
    08:00 +13°C° 0 mm 2 mps 728 mmHg 58%
    09:00 +14°C° 0 mm 3 mps 727 mmHg 50%
    10:00 +17°C° 0 mm 3 mps 727 mmHg 42%
    11:00 +19°C° 0 mm 4 mps 727 mmHg 34%
    12:00 +20°C° 0 mm 4 mps 727 mmHg 31%
    13:00 +20°C° 0 mm 4 mps 727 mmHg 29%
    14:00 +21°C° 0 mm 5 mps 726 mmHg 26%
    15:00 +20°C° 0 mm 4 mps 726 mmHg 30%
    16:00 +19°C° 0 mm 3 mps 726 mmHg 34%
    17:00 +18°C° 0 mm 3 mps 726 mmHg 38%
    18:00 +17°C° 0 mm 2 mps 726 mmHg 43%
    19:00 +16°C° 0 mm 2 mps 726 mmHg 48%
    20:00 +16°C° 0 mm 2 mps 726 mmHg 53%
    21:00 +15°C° 0 mm 1 mps 726 mmHg 56%
    22:00 +14°C° 0 mm 1 mps 726 mmHg 59%
    23:00 +14°C° 0 mm 1 mps 726 mmHg 62%

    14 December, Saturday

    Time Temperature Precipitation Wind Pressure Humidity
    00:00 +13°C° 0 mm 0 mps 726 mmHg 64%
    01:00 +12°C° 0 mm 0 mps 725 mmHg 66%
    02:00 +12°C° 0 mm 0 mps 725 mmHg 67%
    03:00 +11°C° 0 mm 0 mps 725 mmHg 68%
    04:00 +11°C° 0 mm 0 mps 725 mmHg 70%
    05:00 +11°C° 0 mm 0 mps 725 mmHg 71%
    06:00 +12°C° 0 mm 0 mps 725 mmHg 65%
    07:00 +14°C° 0 mm 0 mps 726 mmHg 58%
    08:00 +15°C° 0 mm 0 mps 726 mmHg 52%
    09:00 +17°C° 0 mm 0 mps 726 mmHg 47%
    10:00 +18°C° 0 mm 0 mps 726 mmHg 41%
    11:00 +20°C° 0 mm 0 mps 726 mmHg 36%
    12:00 +22°C° 0 mm 1 mps 725 mmHg 34%
    13:00 +23°C° 0 mm 1 mps 725 mmHg 32%
    14:00 +23°C° 0 mm 2 mps 724 mmHg 31%
    15:00 +22°C° 0 mm 1 mps 724 mmHg 35%
    16:00 +21°C° 0 mm 1 mps 724 mmHg 40%
    17:00 +20°C° 0 mm 1 mps 724 mmHg 44%
    18:00 +19°C° 0 mm 1 mps 724 mmHg 45%
    19:00 +19°C° 0 mm 1 mps 725 mmHg 46%
    20:00 +18°C° 0 mm 1 mps 725 mmHg 48%
    21:00 +16°C° 0 mm 1 mps 725 mmHg 48%
    22:00 +16°C° 0 mm 1 mps 725 mmHg 49%
    23:00 +14°C° 0 mm 0 mps 725 mmHg 49%

    15 December, Sunday

    Time Temperature Precipitation Wind Pressure Humidity
    00:00 +14°C° 0 mm 0 mps 724 mmHg 51%
    01:00 +13°C° 0 mm 0 mps 724 mmHg 52%
    02:00 +13°C° 0 mm 0 mps 723 mmHg 53%
    03:00 +13°C° 0 mm 0 mps 723 mmHg 53%
    04:00 +12°C° 0 mm 0 mps 723 mmHg 53%
    05:00 +12°C° 0 mm 0 mps 723 mmHg 53%
    06:00 +14°C° 0 mm 0 mps 723 mmHg 49%
    07:00 +16°C° 0 mm 1 mps 723 mmHg 44%
    08:00 +19°C° 0 mm 1 mps 724 mmHg 40%
    09:00 +20°C° 0 mm 1 mps 724 mmHg 35%
    10:00 +22°C° 0 mm 1 mps 724 mmHg 30%
    11:00 +23°C° 0 mm 1 mps 724 mmHg 26%
    12:00 +23°C° 0 mm 1 mps 723 mmHg 24%
    13:00 +24°C° 0 mm 2 mps 723 mmHg 23%
    14:00 +24°C° 0 mm 2 mps 722 mmHg 22%
    15:00 +23°C° 0 mm 2 mps 722 mmHg 24%
    16:00 +21°C° 0 mm 2 mps 722 mmHg 27%
    17:00 +19°C° 0 mm 2 mps 722 mmHg 30%
    18:00 +19°C° 0 mm 1 mps 722 mmHg 32%
    19:00 +19°C° 0 mm 1 mps 722 mmHg 34%
    20:00 +16°C° 0 mm 0 mps 722 mmHg 36%
    21:00 +15°C° 0 mm 0 mps 722 mmHg 36%
    22:00 +15°C° 0 mm 0 mps 721 mmHg 37%
    23:00 +15°C° 0 mm 0 mps 721 mmHg 38%
    Show more